KMCC

Details ICAO KMCC (MCC)
Name MC CLELLAN AFLD
Region United States
Timezone America/Los_Angeles (UTC-7.0)
Plans Departing 20
Arriving 17
Stats Elevation 75 ft / 23 m (AMSL)
Location 38.667637° -121.400600°
Runways 1
Magnetic Variation 13.490° E
Sunrise 2018-05-27 12:46:32 UTC / 2018-05-27 05:46:32 Local
Sunset 2018-05-28 03:21:57 UTC / 2018-05-27 20:21:57 Local
Advertisement - Login to hide

Runways

ID Width Length Bearing (true) Bearing (mag) Surface Threshold Offset Overrun Length
16 200 ft / 61 m 10,620 ft / 3,237 m 180.07° 166.58° Concrete 0 ft / 0 m 1,273 ft / 388 m
34 200 ft / 61 m 10,620 ft / 3,237 m 0.07° 346.58° Concrete 0 ft / 0 m 1,125 ft / 343 m

Approach Navaids

Runway Type Ident Frequency Range Bearing (true) Bearing (mag) Slope Elevation
16 Localiser IMCC 109.70 MHz 18 nm / 33 km 180.06° 166.57° - 66 ft / 20 m (AMSL)
16 Glidescope IMCC 109.70 MHz 10 nm / 19 km 180.07° 166.58° 3.00° 70 ft / 21 m (AMSL)

Map

Weather


0- 5 10 15 20 25 30 35+ Temperature / ° C

Clouds and Precipitation
Forecast for 2018-05-27 12:00 UTC. Updated 3 hours ago

Ground ~20,000 ft ~40,000 ft Winds

METAR

KMCC 271410Z AUTO 12006KT 8SM CLR 14/12 A2999 RMK AO2

TAF

Not found

Frequencies

Unicom 122.97 MHz CTAF/UNICOM
Approach 127.40 MHz NORCAL APP/DEP
Warning: Do not use this data for real-world aviation or navigation. No guarantee of current accuracy is given.